Regional Weather Roundup
Issued by NWS

Home | Current Version | Previous Version | Text Only | Print | Product List | Glossary Off
Versions: 1 2 3 4 5 6 7 8 9 10 11 12 13 14 15 16 17 18 19 20 21 22 23 24 25 26 27 28 29 30 31 32 33 34 35 36 37 38 39 40 41 42 43 44 45 46 47 48 49 50

000
ASUS43 KLSX 060659
RWRMO

WEATHER SUMMARY FOR MISSOURI
NATIONAL WEATHER SERVICE SPRINGFIELD MO
100 AM CST FRI MAR 06 2015

NOTE: "FAIR" INDICATES FEW OR NO CLOUDS BELOW 12,000 FEET WITH NO
       SIGNIFICANT WEATHER AND/OR OBSTRUCTIONS TO VISIBILITY.
       CURRENT SKY AND/OR WEATHER CONDITIONS ARE NOT AVAILABLE FOR
       CHILLICOTHE AND FARMINGTON.

MOZ001>031-035>038-043-044-053-054-060800-
...NORTHERN AND WESTERN MISSOURI...

CITY           SKY/WX    TMP DP  RH WIND       PRES   REMARKS
KANSAS CTY INT CLEAR     23  12  62 S13       30.40F WCI  11
KANSAS C DTWN  CLEAR     27  11  51 S9        30.43F WCI  18
LEE`S SUMMIT   CLEAR     24  11  57 S9        30.43F WCI  14
ST JOSEPH      CLEAR     23  13  65 S9        30.40F WCI  13
CHILLICOTHE      N/A     20  10  65 S7        30.45F WCI  11
KIRKSVILLE     CLEAR     14  10  84 S8        30.45F WCI   3

$$
MOZ066>068-077>081-088>096-101>105-060800-
...SOUTHWEST MISSOURI...

CITY           SKY/WX    TMP DP  RH WIND       PRES   REMARKS
SPRINGFIELD    CLEAR     21  12  68 S7        30.47F WCI  12
JOPLIN         CLEAR     26  14  60 S10       30.48F WCI  16

$$
MOZ032>034-039>042-045>050-055>058-069>072-060800-
...CENTRAL MISSOURI...

CITY           SKY/WX    TMP DP  RH WIND       PRES   REMARKS
COLUMBIA       CLEAR     17   9  70 SE8       30.50F WCI   7
JEFFERSON CITY CLEAR     17  10  74 SE5       30.54F WCI  10
ROLLA          CLEAR     19   9  65 SE9       30.48F WCI   8
SEDALIA        CLEAR     21  10  62 SE9       30.48F WCI  11
OSAGE BEACH    CLEAR     18  10  73 CALM      30.50F

$$
MOZ051-052-059>065-060800-
...EAST CENTRAL MISSOURI...

CITY           SKY/WX    TMP DP  RH WIND       PRES   REMARKS
ST LOUIS INTL  CLEAR     15   6  67 E5        30.57F WCI   8
SPIRIT OF STL  CLEAR     16   8  71 CALM      30.56F
ST CHARLES     CLEAR      9   3  77 E6        30.58F WCI  -1

$$
MOZ072>076-082>087-097>100-106>115-060800-
...SOUTH CENTRAL AND SOUTHEAST MISSOURI...

CITY           SKY/WX    TMP DP  RH WIND       PRES   REMARKS
CAPE GIRARDEAU PTCLDY     2   1  96 CALM      30.60F FOG
FARMINGTON     CLEAR     12   9  85 S3        30.56F
POPLAR BLUFF   PTCLDY    13   9  84 CALM      30.59F FOG
WEST PLAINS    PTCLDY    17   5  59 SE5       30.52F WCI  10

$$



USA.gov is the U.S. government's official web portal to all federal, state and local government web resources and services.